DateTimeUTC,F1_A11,F1_S11,BsB_S11,BsG_S11,BsR_S11,BbsB_S11,BbsG_S11,BbsR_S11,BaB_A11,BaG_A11,BaR_A11,T_S11,U_S11,P_S11,T1_A11
2020-09-24T00:00:00Z,00000380,21000600,,,,,,,,,,23.3,00.0,0664.6,30.9
2020-09-24T00:01:00Z,00000380,21000600,,,,,,,,,,23.3,00.0,0664.6,30.9
2020-09-24T00:02:00Z,00000380,21000600,,,,,,,,,,23.3,00.0,0664.6,30.9
2020-09-24T00:03:00Z,00000380,61000600,,,,,,,,,,23.3,00.0,0664.6,30.9
2020-09-24T00:04:00Z,00000380,41000600,0000.48,0000.07,0000.18,0000.40,0000.20,-000.35,-000.02,-000.08,0000.02,23.2,00.0,0665.5,30.9
2020-09-24T00:05:00Z,00000380,01000600,0000.95,-000.34,0000.60,0000.98,0000.32,-000.15,-000.09,-000.14,-000.06,23.2,00.0,0665.6,30.9
2020-09-24T00:06:00Z,00000380,01000600,0001.03,0000.40,-000.12,0000.54,-000.23,0000.08,-000.25,-000.11,-000.15,23.2,00.0,0665.5,30.9
2020-09-24T00:07:00Z,00000380,01000600,0000.47,0000.30,0000.70,0000.78,0000.25,0000.01,-000.01,0000.12,0000.10,23.2,00.0,0665.5,30.9
2020-09-24T00:08:00Z,00000380,01000600,0000.21,-000.32,0000.09,-000.24,0000.28,-000.15,-000.02,-000.12,-000.02,23.1,00.0,0665.5,30.9
2020-09-24T00:09:00Z,00000380,01000600,0000.43,0000.29,0000.46,0000.23,0000.25,-000.10,0000.03,-000.06,0000.11,23.1,00.0,0665.5,30.9
2020-09-24T00:10:00Z,00000380,01000600,0000.52,0000.05,0000.09,-000.21,0000.44,-000.34,0000.01,0000.08,0000.01,23.1,00.0,0665.5,30.9
2020-09-24T00:11:00Z,00000380,01000600,0000.58,0000.25,-000.15,0000.45,0000.31,-000.27,0000.20,0000.21,-000.09,23.1,00.0,0665.5,30.9
2020-09-24T00:12:00Z,00000380,01000600,0000.44,0000.06,0000.70,0000.29,-000.17,-000.54,0000.06,0000.07,0000.17,23.1,00.0,0665.5,30.9
2020-09-24T00:13:00Z,00000380,01000600,0000.47,0000.04,0000.20,0000.04,0000.54,0000.19,0000.04,-000.01,-000.06,23.0,00.0,0665.6,30.9
2020-09-24T00:14:00Z,00000380,01000600,0000.26,0000.01,0000.02,0000.55,0000.32,-000.15,0000.19,-000.03,0000.36,23.0,00.0,0665.5,30.9
2020-09-24T00:15:00Z,00000380,01000600,0000.62,-000.24,0000.35,0000.71,0000.22,0000.01,0000.41,0000.45,0000.13,23.0,00.0,0665.5,30.9
2020-09-24T00:16:00Z,00000380,01000600,-000.42,0000.29,0000.49,0000.87,-000.14,0000.28,0000.13,0000.16,0000.00,23.0,00.0,0665.6,30.9
2020-09-24T00:17:00Z,00000380,01000600,0000.89,0000.26,0000.04,-000.70,0000.47,-000.26,0000.16,0000.12,0000.20,23.0,00.0,0665.6,30.9
2020-09-24T00:18:00Z,00000380,01000600,0000.58,0000.54,0000.84,0000.62,0000.18,-000.19,0000.09,0000.06,-000.05,23.1,00.0,0665.6,30.9
2020-09-24T00:19:00Z,00000380,01000600,0000.38,-000.06,0000.03,0000.14,0000.02,-000.30,-000.13,0000.04,0000.16,23.1,00.0,0665.6,30.9
2020-09-24T00:20:00Z,00000380,01000600,0000.77,-000.02,0000.23,0000.68,-000.02,0000.29,-000.21,-000.25,-000.32,23.1,00.0,0665.6,30.9
2020-09-24T00:21:00Z,00000380,01000600,0000.16,0000.03,0000.76,-000.24,0000.01,0000.27,0000.00,0000.13,0000.04,23.1,00.0,0665.6,30.9
2020-09-24T00:22:00Z,00000380,01000600,0000.48,0000.15,0000.27,-000.24,0000.02,0000.09,-000.01,-000.02,-000.06,23.1,00.0,0665.5,30.9
2020-09-24T00:23:00Z,00000380,01000600,0000.89,0000.02,0000.63,0000.80,0000.07,-000.28,-000.02,-000.12,0000.12,23.1,00.0,0665.5,30.9
2020-09-24T00:24:00Z,00000380,01000600,0000.24,0000.24,0000.04,0000.63,0000.27,-000.26,0000.22,0000.19,0000.02,23.0,00.0,0665.5,30.9
2020-09-24T00:25:00Z,00000380,01000600,0001.13,0000.40,0000.41,0000.41,0000.31,-000.02,0000.11,0000.29,0000.30,23.0,00.0,0665.5,30.9
2020-09-24T00:26:00Z,00000380,01000600,0000.77,0000.03,-000.11,0000.18,-000.02,-000.46,0000.19,-000.00,-000.16,23.0,00.0,0665.5,30.9
2020-09-24T00:27:00Z,00000380,01000600,-000.01,-000.02,-000.30,0000.37,0000.15,-000.39,0000.05,0000.15,0000.13,23.0,00.0,0665.5,30.9
2020-09-24T00:28:00Z,00000380,01000600,-000.61,-000.66,0000.52,0000.71,-000.03,0000.04,0000.16,-000.01,0000.14,23.0,00.0,0665.5,30.9
2020-09-24T00:29:00Z,00000380,01000600,0000.67,0000.08,0000.02,0000.19,0000.13,-000.01,-000.06,-000.08,-000.03,23.0,00.0,0665.5,30.9
2020-09-24T00:30:00Z,00000380,01000600,-000.02,0000.15,-000.14,0000.20,0000.43,-000.20,0000.13,0000.14,0000.15,23.0,00.0,0665.5,30.9
2020-09-24T00:31:00Z,00000380,01000600,0000.94,0000.63,0000.19,0000.30,0000.06,-000.21,-000.00,0000.14,0000.03,23.0,00.0,0665.5,30.9
2020-09-24T00:32:00Z,00000380,01000600,0000.88,0000.39,0000.81,0000.30,0000.08,-000.01,0000.06,-000.12,-000.10,23.0,00.0,0665.5,30.9
2020-09-24T00:33:00Z,00000380,01000600,-000.23,0000.39,0000.68,0000.64,-000.03,0000.15,0000.03,-000.00,0000.15,23.0,00.0,0665.5,30.9
2020-09-24T00:34:00Z,00000380,01000600,0001.46,0000.43,-000.32,0000.56,0000.09,-000.15,-000.01,0000.17,-000.10,23.0,00.0,0665.5,30.9
2020-09-24T00:35:00Z,00000380,01000600,0000.71,0000.36,-000.07,0000.06,0000.01,-000.11,0000.11,0000.14,0000.14,23.1,00.0,0665.5,30.9
2020-09-24T00:36:00Z,00000380,01000600,0000.50,0000.29,0000.45,-000.54,0000.15,0000.22,0000.18,0000.14,0000.11,23.1,00.0,0665.4,30.9
2020-09-24T00:37:00Z,00000380,01000600,0000.63,-000.37,0000.52,-000.33,0000.20,-000.07,-000.06,0000.04,0000.03,23.1,00.0,0665.4,30.9
2020-09-24T00:38:00Z,00000380,01000600,0000.34,-000.22,0000.13,0000.11,0000.01,-000.29,0000.08,0000.08,-000.10,23.1,00.0,0665.4,30.9
2020-09-24T00:39:00Z,00000380,01000600,0000.58,0000.09,-000.11,-000.07,-000.07,-000.20,0000.14,0000.16,0000.15,23.0,00.0,0665.4,30.9
2020-09-24T00:40:00Z,00000380,01000600,-000.11,-000.06,-000.29,0000.90,-000.25,0000.19,-000.41,-000.37,-000.19,23.0,00.0,0665.4,30.9
2020-09-24T00:41:00Z,00000380,01000600,-000.15,0000.51,0000.26,0000.44,0000.13,-000.02,0000.00,0000.01,-000.04,23.0,00.0,0665.4,30.9
2020-09-24T00:42:00Z,00000380,01000600,0000.14,-000.04,-000.24,-000.15,0000.03,-000.17,-000.18,-000.20,-000.01,23.0,00.0,0665.4,30.9
2020-09-24T00:43:00Z,00000380,01000600,0000.39,-000.20,0000.64,0000.53,-000.06,0000.16,-000.21,-000.14,-000.24,23.0,00.0,0665.4,30.9
2020-09-24T00:44:00Z,00000380,01000600,0000.67,-000.10,0000.15,0000.37,0000.16,-000.09,-000.19,-000.39,-000.12,22.9,00.0,0665.4,30.9
2020-09-24T00:45:00Z,00000380,01000600,-000.02,0000.05,-000.16,0000.55,0000.29,-000.15,0000.03,0000.03,-000.06,22.9,00.0,0665.4,30.9
2020-09-24T00:46:00Z,00000380,01000600,0000.05,0000.02,0000.67,-000.17,0000.13,0000.15,0000.17,0000.05,0000.18,22.9,00.0,0665.4,30.9
2020-09-24T00:47:00Z,00000380,01000600,-000.16,0000.06,-000.23,-000.24,0000.25,-000.09,0000.13,0000.24,0000.03,22.9,00.0,0665.4,30.9
2020-09-24T00:48:00Z,00000380,01000600,0001.13,-000.11,0000.16,0000.75,0000.51,0000.09,-000.07,0000.11,0000.07,23.0,00.0,0665.4,30.9
2020-09-24T00:49:00Z,00000380,01000600,0000.21,0000.08,0000.32,0001.09,0000.34,0000.01,0000.19,0000.09,0000.06,23.0,00.0,0665.4,30.9
2020-09-24T00:50:00Z,00000380,01000600,0000.65,-000.25,-000.00,0000.14,-000.35,-000.17,0000.04,0000.12,0000.17,23.0,00.0,0665.4,30.9
2020-09-24T00:51:00Z,00000380,01000600,0000.06,-000.48,0000.36,0000.32,0000.43,-000.14,-000.17,-000.20,-000.20,23.0,00.0,0665.4,30.9
2020-09-24T00:52:00Z,00000380,01000600,0000.21,-000.21,0000.13,-000.27,0000.15,-000.10,0000.09,-000.02,0000.12,22.9,00.0,0665.4,30.9
2020-09-24T00:53:00Z,00000380,01000600,0000.68,-000.24,0000.32,0000.47,0000.08,0000.09,0000.02,0000.21,-000.05,22.9,00.0,0665.4,30.9
2020-09-24T00:54:00Z,00000380,01000600,-000.36,-000.21,0000.58,0000.05,0000.27,0000.57,0000.20,0000.10,-000.01,22.9,00.0,0665.4,30.9
2020-09-24T00:55:00Z,00000380,01000600,-000.25,0000.00,-000.01,0000.46,0000.26,-000.02,-000.10,-000.12,-000.05,22.9,00.0,0665.4,30.9
2020-09-24T00:56:00Z,00000380,01000600,0000.18,0000.43,0000.11,0000.19,0000.21,-000.53,-000.24,-000.23,-000.00,22.8,00.0,0665.4,30.9
2020-09-24T00:57:00Z,00000380,41000600,,,,,,,,,,22.9,00.0,0665.3,30.9
2020-09-24T00:58:00Z,00000380,61000600,,,,,,,,,,23.0,00.0,0664.4,30.9
2020-09-24T00:59:00Z,00000380,21000600,,,,,,,,,,23.1,00.0,0664.4,30.9
2020-09-24T01:00:00Z,00000380,21000600,,,,,,,,,,23.1,00.0,0664.4,30.9
2020-09-24T01:01:00Z,00000380,21000600,,,,,,,,,,23.1,00.0,0664.4,30.9
2020-09-24T01:02:00Z,00000380,21000600,,,,,,,,,,23.1,00.0,0664.5,30.9
2020-09-24T01:03:00Z,00000380,61000600,,,,,,,,,,23.1,00.0,0664.5,30.9
2020-09-24T01:04:00Z,00000380,41000600,0000.39,-000.25,0000.19,0000.28,0000.38,0000.15,-000.08,-000.10,-000.11,22.9,00.0,0665.4,30.9
2020-09-24T01:05:00Z,00000380,01000600,-000.67,0000.25,0000.67,0000.41,-000.12,0000.07,0000.13,0000.13,-000.01,22.9,00.0,0665.4,30.9
2020-09-24T01:06:00Z,00000380,01000600,0000.63,0000.50,0000.80,-000.52,-000.21,-000.19,0000.17,0000.17,0000.16,22.9,00.0,0665.4,30.9
2020-09-24T01:07:00Z,00000380,01000600,0000.27,0001.03,0000.34,0000.58,-000.22,0000.01,0000.33,0000.35,0000.23,22.9,00.0,0665.4,30.9
2020-09-24T01:08:00Z,00000380,01000600,-000.83,0000.36,-000.02,0000.11,0000.25,-000.16,0000.04,0000.22,0000.22,22.9,00.0,0665.4,30.9
2020-09-24T01:09:00Z,00000380,01000600,0000.63,0000.09,0000.53,-000.12,0000.14,0000.09,0000.13,-000.02,0000.01,22.9,00.0,0665.4,30.9
2020-09-24T01:10:00Z,00000380,01000600,-000.70,0000.57,0000.16,-000.30,0000.06,-000.29,0000.10,-000.03,-000.07,22.9,00.0,0665.4,30.9
2020-09-24T01:11:00Z,00000380,01000600,0000.97,-000.07,0000.83,0000.22,-000.13,0000.13,0000.02,-000.06,0000.01,22.8,00.0,0665.4,30.9
2020-09-24T01:12:00Z,00000380,01000600,0000.89,0000.43,0000.28,-000.27,0000.18,0000.28,-000.09,0000.07,0000.04,22.8,00.0,0665.4,30.9
2020-09-24T01:13:00Z,00000380,01000600,0000.80,0000.62,-000.30,-000.57,0000.32,0000.13,-000.03,0000.03,-000.03,22.8,00.0,0665.4,30.9
2020-09-24T01:14:00Z,00000380,01000600,0000.42,0000.77,0000.37,-000.20,-000.39,-000.08,-000.25,-000.28,-000.07,22.8,00.0,0665.3,30.9
2020-09-24T01:15:00Z,00000380,01000600,-000.22,0000.30,0000.44,-000.01,0000.08,0000.13,-000.17,-000.10,-000.17,22.8,00.0,0665.4,30.9
2020-09-24T01:16:00Z,00000380,01000600,0000.39,0000.62,0000.41,0000.12,0000.15,-000.03,0000.05,-000.05,-000.17,22.8,00.0,0665.4,30.9
2020-09-24T01:17:00Z,00000380,01000600,-000.09,0000.27,0000.10,-000.18,0000.27,0000.02,-000.19,-000.27,-000.04,22.8,00.0,0665.4,30.9
2020-09-24T01:18:00Z,00000380,01000600,0000.25,0000.08,0000.48,0000.32,0000.09,-000.33,-000.02,-000.05,-000.11,22.8,00.0,0665.4,30.9
2020-09-24T01:19:00Z,00000380,01000600,0000.74,-000.03,0000.15,-000.03,0000.10,-000.18,-000.02,0000.02,-000.04,22.8,00.0,0665.4,30.9
2020-09-24T01:20:00Z,00000380,01000600,0000.31,0000.95,0000.34,0000.18,-000.21,-000.01,-000.19,0000.01,-000.01,22.8,00.0,0665.4,30.9
2020-09-24T01:21:00Z,00000380,01000600,-000.07,-000.23,-000.08,0000.70,-000.06,-000.56,-000.01,-000.23,-000.07,22.8,00.0,0665.4,30.9
2020-09-24T01:22:00Z,00000380,01000600,-000.68,-000.75,0000.02,-000.26,-000.09,0000.34,-000.22,-000.07,-000.07,22.8,00.0,0665.4,30.9
2020-09-24T01:23:00Z,00000380,01000600,-000.67,0000.57,0000.37,0000.10,-000.10,0000.23,-000.01,0000.03,-000.06,22.8,00.0,0665.4,30.9
2020-09-24T01:24:00Z,00000380,01000600,0000.97,0000.33,0000.31,-000.10,-000.19,-000.23,0000.09,0000.08,-000.02,22.8,00.0,0665.4,30.9
2020-09-24T01:25:00Z,00000380,01000600,-000.85,0000.12,0000.17,-000.16,0000.07,-000.19,-000.15,-000.09,0000.01,22.8,00.0,0665.4,30.9
2020-09-24T01:26:00Z,00000380,01000600,0001.09,0000.92,0000.42,0000.48,0000.02,-000.15,-000.07,-000.11,-000.05,22.7,00.0,0665.4,30.9
2020-09-24T01:27:00Z,00000380,01000600,0000.10,0000.08,0000.34,0000.15,-000.32,-000.49,-000.17,-000.20,-000.28,22.7,00.0,0665.4,30.9
2020-09-24T01:28:00Z,00000380,01000600,0000.42,-000.32,0000.12,-000.59,-000.13,0000.11,-000.02,0000.03,0000.14,22.7,00.0,0665.4,30.9
2020-09-24T01:29:00Z,00000380,01000600,0000.20,0000.34,-000.12,-000.39,-000.39,0000.30,0000.01,-000.01,-000.06,22.7,00.0,0665.4,30.9
2020-09-24T01:30:00Z,00000380,01000600,-000.22,-000.01,-000.03,0000.34,-000.17,0000.20,0000.14,-000.12,0000.06,22.7,00.0,0665.4,30.9
2020-09-24T01:31:00Z,00000380,01000600,0000.34,0000.18,0000.13,-000.20,-000.25,0000.35,0000.22,0000.35,0000.21,22.7,00.0,0665.4,30.9
2020-09-24T01:32:00Z,00000380,01000600,0000.14,-000.20,0000.00,-000.35,0000.06,-000.41,0000.18,0000.04,0000.11,22.7,00.0,0665.4,30.9
2020-09-24T01:33:00Z,00000380,01000600,-000.97,-000.24,0000.63,0000.01,-000.29,0000.09,0000.11,0000.22,0000.27,22.7,00.0,0665.4,30.9
2020-09-24T01:34:00Z,00000380,01000600,0000.02,-000.05,0000.58,0000.52,0000.06,-000.56,0000.49,0000.27,0000.12,22.7,00.0,0665.4,30.9
2020-09-24T01:35:00Z,00000380,01000600,-001.00,-000.37,0000.40,-000.27,0000.17,0000.10,0000.03,0000.25,0000.12,22.7,00.0,0665.4,30.9
2020-09-24T01:36:00Z,00000380,01000600,-000.71,0000.62,-000.22,0000.44,-000.08,-000.12,0000.01,-000.01,-000.10,22.8,00.0,0665.4,30.9
2020-09-24T01:37:00Z,00000380,01000600,-000.82,-000.07,0001.07,0000.25,0000.21,0000.04,-000.05,-000.04,0000.15,22.8,00.0,0665.4,30.9
2020-09-24T01:38:00Z,00000380,01000600,0001.27,0000.12,0000.37,-000.30,-000.37,-000.00,0000.17,0000.44,0000.22,22.8,00.0,0665.4,30.9
2020-09-24T01:39:00Z,00000380,01000600,0000.50,0000.46,0000.56,0000.31,0000.23,0000.07,0001.33,0001.07,0000.79,22.8,00.0,0665.4,30.9
2020-09-24T01:40:00Z,00000380,01000600,-000.26,0000.90,0000.37,0000.50,0000.15,0000.20,-000.55,-000.47,-000.52,22.8,00.0,0665.3,30.9
2020-09-24T01:41:00Z,00000380,01000600,0000.13,0000.62,0000.29,0000.12,-000.17,-000.43,-000.07,-000.20,0000.06,22.7,00.0,0665.3,30.9
2020-09-24T01:42:00Z,00000380,01000600,-000.44,0000.58,0000.54,0000.22,0000.03,0000.01,-000.23,-000.27,-000.29,22.7,00.0,0665.3,30.9
2020-09-24T01:43:00Z,00000380,01000600,0001.28,0000.45,0000.34,0000.08,0000.25,-000.07,0000.05,0000.19,0000.06,22.7,00.0,0665.3,30.9
2020-09-24T01:44:00Z,00000380,01000600,-000.58,0000.72,0000.20,-000.84,0000.18,0000.04,0000.08,-000.07,0000.19,22.7,00.0,0665.3,30.9
2020-09-24T01:45:00Z,00000380,01000600,-000.52,0000.61,0000.36,0000.57,0000.03,0000.26,0000.22,0000.06,-000.04,22.7,00.0,0665.3,30.9
2020-09-24T01:46:00Z,00000380,01000600,-000.60,-000.17,0000.42,-000.47,-000.02,0000.13,-000.05,0000.18,-000.00,22.7,00.0,0665.3,30.9
2020-09-24T01:47:00Z,00000380,01000600,-000.40,0000.34,0000.67,-000.16,0000.05,0000.21,0000.01,-000.13,0000.10,22.7,00.0,0665.3,30.9
2020-09-24T01:48:00Z,00000380,01000600,-000.36,0000.31,0000.14,0000.12,0000.38,0000.13,-000.04,0000.01,-000.15,22.7,00.0,0665.3,30.9
2020-09-24T01:49:00Z,00000380,01000600,-000.99,0000.25,0000.07,0000.19,-000.05,-000.06,0000.00,-000.10,0000.04,22.7,00.0,0665.3,30.9
2020-09-24T01:50:00Z,00000380,01000600,-000.05,0000.10,0000.12,-000.11,-000.34,-000.03,-000.04,-000.05,-000.11,22.7,00.0,0665.3,30.9
2020-09-24T01:51:00Z,00000380,01000600,0000.42,0000.47,0000.37,-000.41,-000.07,0000.02,0000.15,0000.12,-000.05,22.8,00.0,0665.3,30.9
2020-09-24T01:52:00Z,00000380,01000600,-000.12,0000.02,0000.92,-000.46,-000.17,0000.20,-000.12,0000.22,0000.15,22.8,00.0,0665.3,30.9
2020-09-24T01:53:00Z,00000380,01000600,0000.29,0001.00,0000.29,0000.73,-000.06,-000.07,0000.38,0000.35,0000.16,22.8,00.0,0665.3,30.9
2020-09-24T01:54:00Z,00000380,01000600,0001.25,0001.06,0000.74,0000.10,0000.25,0000.09,-000.24,-000.28,-000.00,22.8,00.0,0665.3,30.9
2020-09-24T01:55:00Z,00000380,01000600,0000.05,0000.73,0000.16,0000.08,0000.06,-000.15,0000.13,0000.05,-000.00,22.7,00.0,0665.3,30.9
2020-09-24T01:56:00Z,00000380,01000600,0000.78,0000.02,0000.06,0000.64,0000.28,-000.13,-000.13,-000.07,-000.08,22.7,00.0,0665.3,30.9
2020-09-24T01:57:00Z,00000380,41000600,,,,,,,,,,22.7,00.0,0665.2,30.9
2020-09-24T01:58:00Z,00000380,61000600,,,,,,,,,,22.8,00.0,0664.3,30.9
2020-09-24T01:59:00Z,00000380,21000600,,,,,,,,,,22.9,00.0,0664.3,30.8
2020-09-24T02:00:00Z,00000380,21000600,,,,,,,,,,22.9,00.0,0664.3,30.9
2020-09-24T02:01:00Z,00000380,21000600,,,,,,,,,,22.9,00.0,0664.3,30.9
2020-09-24T02:02:00Z,00000380,21000600,,,,,,,,,,22.9,00.0,0664.3,30.9
2020-09-24T02:03:00Z,00000380,61000600,,,,,,,,,,22.9,00.0,0664.3,30.9
2020-09-24T02:04:00Z,00000380,41000600,0000.97,0000.11,0000.00,-000.00,-000.27,-000.52,-000.03,0000.19,0000.02,22.8,00.0,0665.2,30.9
2020-09-24T02:05:00Z,00000380,01000600,0000.67,0000.37,0000.21,-000.27,-000.06,-000.16,-000.00,-000.25,-000.06,22.8,00.0,0665.2,30.9
2020-09-24T02:06:00Z,00000380,01000600,0000.49,0000.35,0000.23,-000.44,0000.03,0000.31,0000.02,-000.04,-000.02,22.8,00.0,0665.2,30.9
2020-09-24T02:07:00Z,00000380,01000600,-000.37,0000.24,0000.24,-000.31,0000.27,-000.34,-000.09,0000.26,0000.04,22.8,00.0,0665.2,30.9
2020-09-24T02:08:00Z,00000380,01000600,0001.63,0000.26,0000.09,0000.13,0000.58,0000.04,0000.22,-000.10,0000.06,22.8,00.0,0665.2,30.9
2020-09-24T02:09:00Z,00000380,01000600,0000.77,0000.38,0000.05,0000.28,0000.09,-000.14,0000.00,0000.44,0000.12,22.7,00.0,0665.2,30.9
2020-09-24T02:10:00Z,00000380,01000600,0000.66,0000.85,0000.53,0000.24,0000.10,-000.22,-000.00,-000.17,0000.03,22.7,00.0,0665.2,30.9
2020-09-24T02:11:00Z,00000380,01000600,0000.42,0000.10,0000.35,0000.55,-000.08,0000.21,0000.09,-000.02,0000.02,22.7,00.0,0665.2,30.9
2020-09-24T02:12:00Z,00000380,01000600,0000.47,0000.80,0000.48,-000.15,0000.54,-000.01,-000.05,0000.09,-000.05,22.7,00.0,0665.2,30.9
2020-09-24T02:13:00Z,00000380,01000600,0001.56,0000.58,0000.06,-000.42,0000.15,-000.57,0000.24,-000.01,0000.15,22.6,00.0,0665.2,30.9
2020-09-24T02:14:00Z,00000380,01000600,-000.01,0000.35,0000.18,0000.69,-000.19,-000.08,0000.06,0000.07,0000.06,22.6,00.0,0665.2,30.9
2020-09-24T02:15:00Z,00000380,01000600,0000.84,0000.50,0000.04,-000.15,-000.04,-000.22,0000.27,0000.23,0000.21,22.6,00.0,0665.2,30.9
2020-09-24T02:16:00Z,00000380,01000600,0000.46,0000.02,0000.54,0000.08,0000.20,-000.10,0000.05,0000.07,0000.04,22.6,00.0,0665.2,30.9
2020-09-24T02:17:00Z,00000380,01000600,0000.25,0000.50,0000.28,0000.20,0000.15,-000.40,-000.08,-000.04,0000.11,22.6,00.0,0665.2,30.9
2020-09-24T02:18:00Z,00000380,01000600,-000.10,0000.73,0000.15,-000.52,-000.09,-000.77,0000.34,0000.34,0000.06,22.7,00.0,0665.2,30.9
2020-09-24T02:19:00Z,00000380,01000600,0000.52,0000.31,0000.43,0000.99,-000.06,0000.22,0000.07,0000.06,-000.02,22.7,00.0,0665.1,30.9
2020-09-24T02:20:00Z,00000380,01000600,0001.08,0000.64,0000.54,0000.80,0000.31,0000.21,0000.08,-000.02,0000.17,22.7,00.0,0665.2,30.9
2020-09-24T02:21:00Z,00000380,01000600,0001.29,0000.89,0000.29,0000.31,0000.23,-000.14,0000.00,0000.08,0000.03,22.7,00.0,0665.1,30.9
2020-09-24T02:22:00Z,00000380,01000600,0000.55,0000.46,0000.40,-000.41,0000.06,-000.08,0000.07,0000.15,0000.02,22.7,00.0,0665.1,30.9
2020-09-24T02:23:00Z,00000380,01000600,-000.23,0000.12,0000.13,0000.89,0000.05,-000.12,0000.14,0000.02,0000.01,22.7,00.0,0665.1,30.9
2020-09-24T02:24:00Z,00000380,01000600,0000.99,0000.57,0000.05,0000.69,0000.14,-000.12,0000.01,0000.15,0000.09,22.7,00.0,0665.1,30.9
2020-09-24T02:25:00Z,00000380,01000600,0000.46,0000.11,0000.32,0000.60,0000.13,0000.26,0000.17,0000.14,0000.16,22.7,00.0,0665.1,30.9
2020-09-24T02:26:00Z,00000380,01000600,0000.46,0000.14,0000.03,0000.41,-000.09,0000.06,-000.05,-000.02,-000.10,22.7,00.0,0665.1,30.9
2020-09-24T02:27:00Z,00000380,01000600,0001.56,0000.45,0000.22,0000.41,-000.03,0000.33,0000.22,0000.09,0000.08,22.7,00.0,0665.1,30.9
2020-09-24T02:28:00Z,00000380,01000600,0000.53,0000.73,0000.26,0000.32,0000.41,0000.32,-000.01,-000.04,-000.04,22.7,00.0,0665.1,30.9
2020-09-24T02:29:00Z,00000380,01000600,0000.76,0000.69,0000.14,0000.33,0000.32,0000.24,-000.04,0000.04,0000.14,22.6,00.0,0665.1,30.9
2020-09-24T02:30:00Z,00000380,01000600,0000.93,0000.09,0000.85,0000.38,-000.26,-000.15,0000.24,0000.05,0000.21,22.6,00.0,0665.1,30.9
2020-09-24T02:31:00Z,00000380,01000600,0000.25,0000.18,0000.86,0000.21,0000.14,-000.10,0000.17,0000.34,0000.10,22.6,00.0,0665.1,30.9
2020-09-24T02:32:00Z,00000380,01000600,-000.07,0000.39,0000.77,-000.33,-000.14,0000.26,-000.02,-000.05,-000.06,22.6,00.0,0665.1,30.9
2020-09-24T02:33:00Z,00000380,01000600,0000.53,0000.92,0000.15,0000.16,-000.09,0000.12,0000.17,0000.03,0000.05,22.6,00.0,0665.1,30.9
2020-09-24T02:34:00Z,00000380,01000600,0001.08,0000.32,0000.11,0001.05,0000.23,-000.38,0000.00,0000.23,0000.07,22.7,00.0,0665.1,30.9
2020-09-24T02:35:00Z,00000380,01000600,0000.61,0000.29,0000.28,-000.12,0000.15,0000.27,0000.05,-000.03,-000.06,22.7,00.0,0665.1,30.9
2020-09-24T02:36:00Z,00000380,01000600,0000.50,0000.24,0000.65,-000.18,0000.14,0000.03,0000.00,-000.17,0000.01,22.7,00.0,0665.0,30.9
2020-09-24T02:37:00Z,00000380,01000600,0000.10,0000.45,-000.01,-000.37,0000.23,-000.30,-000.12,0000.17,0000.04,22.7,00.0,0665.0,30.9
2020-09-24T02:38:00Z,00000380,01000600,0000.45,-000.08,0000.88,0000.04,0000.03,-000.45,0000.18,-000.06,0000.11,22.7,00.0,0665.0,30.9
2020-09-24T02:39:00Z,00000380,01000600,0000.92,0000.55,0000.39,0001.04,0000.01,-000.28,-000.04,0000.25,0000.06,22.7,00.0,0665.0,30.9
2020-09-24T02:40:00Z,00000380,01000600,0000.41,0001.02,0000.49,0000.46,-000.25,-000.34,0000.36,0000.16,0000.14,22.6,00.0,0665.0,30.9
2020-09-24T02:41:00Z,00000380,01000600,-000.12,0000.52,0000.23,0000.74,-000.20,-000.17,0000.03,0000.04,0000.07,22.6,00.0,0665.0,30.9
2020-09-24T02:42:00Z,00000380,01000600,0001.70,0000.59,0000.50,0000.51,0000.06,0000.04,0000.17,0000.28,0000.13,22.6,00.0,0665.0,30.9
2020-09-24T02:43:00Z,00000380,01000600,0000.65,0001.02,0000.78,0000.03,0000.07,-000.08,0000.21,-000.08,-000.01,22.5,00.0,0665.0,30.8
2020-09-24T02:44:00Z,00000380,01000600,0000.60,0000.49,0000.07,0000.00,0000.28,0000.08,0000.10,0000.06,0000.09,22.5,00.0,0665.0,30.8
2020-09-24T02:45:00Z,00000380,01000600,0000.78,0000.41,-000.15,0000.44,0000.08,0000.09,0000.28,0000.41,0000.27,22.5,00.0,0665.0,30.8
2020-09-24T02:46:00Z,00000380,01000600,0000.53,0000.72,0000.31,0000.13,-000.26,-000.12,0000.01,-000.04,-000.04,22.5,00.0,0665.0,30.9
2020-09-24T02:47:00Z,00000380,01000600,0000.91,0000.49,0000.05,-000.11,0000.10,0000.32,0000.15,-000.01,0000.13,22.5,00.0,0664.9,30.9
2020-09-24T02:48:00Z,00000380,01000600,0000.80,0000.44,0000.39,0000.32,0000.45,0000.23,0000.06,0000.21,0000.13,22.6,00.0,0664.9,30.9
2020-09-24T02:49:00Z,00000380,01000600,0000.49,0001.15,0000.41,0000.72,-000.11,-000.24,0000.34,0000.16,0000.17,22.6,00.0,0664.9,30.9
2020-09-24T02:50:00Z,00000380,01000600,0000.49,0000.01,-000.12,-000.26,-000.06,-000.39,0000.07,0000.12,0000.03,22.6,00.0,0664.9,30.9
2020-09-24T02:51:00Z,00000380,01000600,0000.69,0000.36,0000.61,0000.08,0000.11,-000.65,0000.08,0000.03,0000.10,22.6,00.0,0664.9,30.9
2020-09-24T02:52:00Z,00000380,01000600,0001.21,0000.73,0000.30,0000.67,0000.06,-000.15,-000.01,0000.22,0000.03,22.6,00.0,0664.9,30.9
2020-09-24T02:53:00Z,00000380,01000600,0000.75,0000.45,0000.27,0001.05,0000.03,0000.04,-000.10,-000.14,-000.16,22.7,00.0,0664.9,30.9
2020-09-24T02:54:00Z,00000380,01000600,0001.17,0000.38,0000.32,0000.29,0000.34,-000.07,-000.19,0000.05,0000.12,22.7,00.0,0664.9,30.9
2020-09-24T02:55:00Z,00000380,01000600,0000.65,0000.33,0000.52,0000.71,0000.10,0000.18,0000.20,-000.09,-000.16,22.7,00.0,0664.9,30.9
2020-09-24T02:56:00Z,00000380,01000600,0000.84,0000.94,0000.23,0000.61,-000.02,-000.04,-000.17,0000.11,0000.14,22.7,00.0,0664.9,30.9
2020-09-24T02:57:00Z,00000380,41000600,,,,,,,,,,22.7,00.0,0664.8,30.9
2020-09-24T02:58:00Z,00000380,61000600,,,,,,,,,,22.8,00.0,0663.9,30.9
2020-09-24T02:59:00Z,00000380,21000600,,,,,,,,,,22.9,00.0,0663.9,30.9
2020-09-24T03:00:00Z,00000380,21000600,,,,,,,,,,22.9,00.0,0663.9,30.9
2020-09-24T03:01:00Z,00000380,21000600,,,,,,,,,,22.9,00.0,0663.9,30.9
2020-09-24T03:02:00Z,00000380,21000600,,,,,,,,,,22.9,00.0,0663.9,30.9
2020-09-24T03:03:00Z,00000380,61000600,,,,,,,,,,22.9,00.0,0663.9,30.9
2020-09-24T03:04:00Z,00000380,41000600,0000.02,0000.66,-000.45,-000.68,-000.09,-000.02,0000.15,0000.30,0000.12,22.8,00.0,0664.8,30.9
2020-09-24T03:05:00Z,00000380,01000600,0001.13,0000.10,-000.25,0000.41,-000.00,-000.28,0000.02,-000.07,-000.06,22.8,00.0,0664.8,30.9
2020-09-24T03:06:00Z,00000380,01000600,0000.98,0000.50,0000.24,-000.03,0000.05,0000.15,-000.10,0000.05,0000.04,22.8,00.0,0664.8,30.9
2020-09-24T03:07:00Z,00000380,01000600,0000.80,0000.01,0000.27,0000.23,0000.05,-000.14,0000.68,0000.66,0000.52,22.8,00.0,0664.8,30.9
2020-09-24T03:08:00Z,00000380,01000600,-000.18,-000.34,-000.12,0000.63,0000.04,-000.22,-000.76,-000.65,-000.55,22.7,00.0,0664.8,30.9
2020-09-24T03:09:00Z,00000380,01000600,0000.99,0000.25,0000.16,0000.33,0000.17,0000.29,0000.08,-000.07,0000.05,22.7,00.0,0664.8,30.9
2020-09-24T03:10:00Z,00000380,01000600,0001.22,0000.50,-000.23,0000.46,0000.04,0000.10,0000.13,0000.27,0000.11,22.7,00.0,0664.8,30.9